This is the latest recevied weather packets stored in our database for station/object KR8N. If no packets are shown the sender has not sent any weather packets the latest 10 day(s).
| Time | Temp. | Humidity | Pressure | Rain* | Wind** | Luminosity | Snow |
|---|---|---|---|---|---|---|---|
| 1778007242 | 22.78° C | 36% | 1015.9 hPa | 0 mm | - | 751 W/m² | - |
| 1778006938 | 22.78° C | 36% | 1015.7 hPa | 0 mm | - | 672 W/m² | - |
| 1778006635 | 22.78° C | 36% | 1015.9 hPa | 0 mm | - | 636 W/m² | - |
| 1778006332 | 23.33° C | 36% | 1015.9 hPa | 0 mm | - | 730 W/m² | - |
| 1778006029 | 22.78° C | 36% | 1015.9 hPa | 0 mm | - | 721 W/m² | - |
| 1778005720 | 22.22° C | 39% | 1016.1 hPa | 0 mm | - | 751 W/m² | - |
| 1778005417 | 22.22° C | 38% | 1016.1 hPa | 0 mm | - | 633 W/m² | - |
| 1778005114 | 22.22° C | 39% | 1016.1 hPa | 0 mm | - | 624 W/m² | - |
| 1778004811 | 22.22° C | 37% | 1016.3 hPa | 0 mm | - | 589 W/m² | - |
| 1778004508 | 21.67° C | 37% | 1016.2 hPa | 0 mm | - | 554 W/m² | - |
| 1778004205 | 22.22° C | 34% | 1016.3 hPa | 0 mm | - | 477 W/m² | - |
| 1778003901 | 22.22° C | 40% | 1016.3 hPa | 0 mm | - | 432 W/m² | - |
| 1778003598 | 22.22° C | 37% | 1016.3 hPa | 0 mm | - | 470 W/m² | - |
| 1778003294 | 22.22° C | 40% | 1016.4 hPa | 0 mm | - | 496 W/m² | - |
| 1778002992 | 22.22° C | 38% | 1016.4 hPa | 0 mm | - | 471 W/m² | - |
| 1778002687 | 22.22° C | 39% | 1016.7 hPa | 0 mm | - | 474 W/m² | - |
| 1778002384 | 22.22° C | 40% | 1016.7 hPa | 0 mm | - | 483 W/m² | - |
| 1778002081 | 21.67° C | 38% | 1016.7 hPa | 0 mm | - | 487 W/m² | - |
| 1778001778 | 22.22° C | 37% | 1016.3 hPa | 0 mm | - | 450 W/m² | - |
| 1778001473 | 22.22° C | 39% | 1016.4 hPa | 0 mm | - | 578 W/m² | - |
| 1778001170 | 22.22° C | 39% | 1016.3 hPa | 0 mm | - | 688 W/m² | - |
| 1778000867 | 22.22° C | 42% | 1016.6 hPa | 0 mm | - | 645 W/m² | - |
| 1778000564 | 22.22° C | 40% | 1016.7 hPa | 0 mm | - | 695 W/m² | - |
| 1777999960 | 22.22° C | 41% | 1016.9 hPa | 0 mm | - | 703 W/m² | - |
| 1777999656 | 22.22° C | 39% | 1016.9 hPa | 0 mm | - | 620 W/m² | - |
* Rain latest hour (hover to see other rain measurements)
** Current wind speed in m/s (hover to see current wind gust speed)